Weather History for Fort Leonard Wood, MO

Change the Weather History Date:

Tuesday, June 18, 2013

  Actual Average Record
Temperature  
Mean Temperature 72 °F -  
Max Temperature 85 °F 80 °F 89 °F (2001)
Min Temperature 59 °F 64 °F 54 °F (2008)
Cooling Degree Days 6    
Growing Degree Days 22 (Base 50)    
Moisture  
Dew Point 62 °F    
Average Humidity 94    
Maximum Humidity 100    
Minimum Humidity 50    
Precipitation  
Precipitation 0.10 in - - ()
Sea Level Pressure  
Sea Level Pressure 29.99 in    
Wind  
Wind Speed 3 mph (WNW)    
Max Wind Speed 18 mph    
Max Gust Speed 26 mph    
Visibility 5 miles    
Events Fog , Rain , Thunderstorm    
Averages and records for this station are not official NWS values.
T = Trace of Precipitation, MM = Missing Value Source: NWS Daily Summary

Daily Weather History Graph

Daily Weather History Graph

Search for Another Location

Airport:

Trip Planner

Search our weather history database for the weather conditions in past years. The results will help you decide how hot, cold, wet, or windy it might be!

Date:

Astronomy

Jun. 18, 2013 Rise Set
Actual Time 5:46 AM CDT 8:33 PM CDT
Civil Twilight 5:15 AM CDT 9:04 PM CDT
Nautical Twilight 4:35 AM CDT 9:43 PM CDT
Astronomical Twilight 3:51 AM CDT 10:28 PM CDT
Moon 3:22 PM CDT (6/18) 1:50 AM CDT (6/18)
Length of Visible Light 15h 49m
Length of Day
14h 46m
Waxing Gibbous, 71% of the Moon is Illuminated
Jun 18
Waxing Gibbous
Jun 23
Full
Jun 29
Last Quarter
Jul 8
New
Jul 15
First Quarter

Hourly Weather History & Observations

Time (CDT) Temp. Heat Index Dew Point Humidity Pressure Visibility Wind Dir Wind Speed Gust Speed Precip Events Conditions
12:53 AM 62.6 °F - 62.6 °F 100% 29.96 in 1.5 mi ENE 2.3 mph - N/A   Partly Cloudy
12:58 AM 62.2 °F - 62.2 °F 100% 29.96 in 1.2 mi NE 1.2 mph - N/A   Clear
1:03 AM 60.8 °F - 60.8 °F 100% 29.97 in 0.8 mi North 1.2 mph - N/A   Clear
1:23 AM 60.8 °F - 60.8 °F 100% 29.97 in 1.0 mi ESE 3.5 mph - N/A   Clear
1:28 AM 60.8 °F - 60.8 °F 100% 29.97 in 1.8 mi SSE 3.5 mph - N/A   Clear
1:33 AM 60.8 °F - 60.8 °F 100% 29.96 in 3.0 mi South 2.3 mph - N/A   Clear
1:38 AM 59.0 °F - 59.0 °F 100% 29.97 in 2.5 mi South 1.2 mph - N/A   Clear
1:43 AM 59.0 °F - 59.0 °F 100% 29.97 in 1.0 mi SSW 1.2 mph - N/A   Clear
1:48 AM 59.0 °F - 59.0 °F 100% 29.97 in 0.8 mi SW 1.2 mph - N/A   Clear
1:58 AM 59.0 °F - 59.0 °F 100% 29.97 in 0.8 mi SW 3.5 mph - N/A   Clear
2:18 AM 60.8 °F - 60.8 °F 100% 29.97 in 0.5 mi SSW 2.3 mph - N/A Fog Fog
2:28 AM 60.8 °F - 60.8 °F 100% 29.97 in 1.0 mi SSW 2.3 mph - N/A   Clear
2:33 AM 59.0 °F - 59.0 °F 100% 29.98 in 0.8 mi SW 2.3 mph - N/A   Clear
2:43 AM 59.0 °F - 59.0 °F 100% 29.99 in 1.2 mi WSW 2.3 mph - N/A   Clear
2:58 AM 59.0 °F - 59.0 °F 100% 29.99 in 2.5 mi WSW 2.3 mph - N/A   Clear
3:03 AM 60.8 °F - 60.8 °F 100% 30.00 in 3.0 mi West 3.5 mph - N/A   Clear
3:08 AM 60.8 °F - 60.8 °F 100% 30.00 in 1.5 mi West 2.3 mph - N/A   Partly Cloudy
3:13 AM 60.8 °F - 60.8 °F 100% 29.99 in 0.8 mi Calm Calm - N/A   Mist
3:18 AM 60.8 °F - 60.8 °F 100% 29.99 in 0.8 mi WNW 2.3 mph - N/A   Clear
3:33 AM 59.0 °F - 59.0 °F 100% 29.99 in 1.0 mi WNW 3.5 mph - N/A   Clear
3:48 AM 60.8 °F - 60.8 °F 100% 29.98 in 0.8 mi WNW 2.3 mph - N/A   Clear
3:58 AM 59.5 °F - 59.5 °F 100% 29.97 in 0.8 mi WNW 4.6 mph - N/A   Clear
4:03 AM 59.0 °F - 59.0 °F 100% 29.98 in 1.0 mi WNW 3.5 mph - N/A   Clear
4:08 AM 59.0 °F - 59.0 °F 100% 29.98 in 1.8 mi NW 4.6 mph - N/A   Clear
4:13 AM 59.0 °F - 59.0 °F 100% 29.99 in 6.0 mi NW 5.8 mph - N/A   Clear
4:23 AM 59.0 °F - 59.0 °F 100% 29.99 in 7.0 mi NW 3.5 mph - N/A   Clear
4:28 AM 59.0 °F - 59.0 °F 100% 29.99 in 1.0 mi NW 3.5 mph - N/A   Clear
4:33 AM 59.0 °F - 59.0 °F 100% 29.99 in 0.5 mi NW 4.6 mph - N/A Fog Fog
4:53 AM 59.0 °F - 59.0 °F 100% 29.99 in 0.5 mi WNW 3.5 mph - N/A Fog Fog
4:58 AM 59.0 °F - 59.0 °F 100% 29.98 in 1.0 mi WNW 4.6 mph - N/A   Clear
5:03 AM 59.0 °F - 59.0 °F 100% 29.99 in 2.5 mi WNW 4.6 mph - N/A   Clear
5:08 AM 60.8 °F - 60.8 °F 100% 29.99 in 6.0 mi WNW 4.6 mph - N/A   Clear
5:58 AM 59.9 °F - 59.7 °F 99% 29.99 in 8.0 mi West 4.6 mph - N/A   Clear
6:58 AM 62.1 °F - 62.1 °F 100% 30.00 in 10.0 mi NW 1.2 mph - N/A   Clear
7:58 AM 65.5 °F - 65.5 °F 100% 30.01 in 10.0 mi NW 3.5 mph - N/A   Clear
8:58 AM 68.9 °F - 65.5 °F 89% 30.02 in 10.0 mi West 4.6 mph - N/A   Clear
9:58 AM 73.2 °F - 67.5 °F 82% 30.03 in 10.0 mi North 4.6 mph - N/A   Clear
10:58 AM 76.5 °F - 68.7 °F 77% 30.03 in 10.0 mi NW 5.8 mph - N/A   Clear
11:58 AM 78.6 °F - 69.1 °F 72% 30.03 in 10.0 mi Variable 2.3 mph - N/A   Partly Cloudy
12:58 PM 80.6 °F 83.5 °F 68.9 °F 67% 30.01 in 10.0 mi Variable 1.2 mph - N/A   Scattered Clouds
1:58 PM 83.5 °F 86.4 °F 67.8 °F 59% 30.01 in 10.0 mi Variable 1.2 mph - N/A   Partly Cloudy
2:58 PM 84.0 °F 87.3 °F 68.2 °F 59% 29.99 in 10.0 mi NW 5.8 mph - N/A   Partly Cloudy
3:53 PM 77.0 °F - 57.2 °F 50% 30.00 in 10.0 mi North 11.5 mph 25.3 mph N/A Rain , Thunderstorm Light Rain
3:58 PM 75.6 °F - 59.9 °F 58% 30.01 in 10.0 mi NNW 15.0 mph 26.5 mph 0.00 in Rain , Thunderstorm Heavy Thunderstorms and Rain
4:01 PM 71.6 °F - 62.6 °F 73% 30.02 in 10.0 mi NW 18.4 mph 26.5 mph N/A Rain , Thunderstorm Thunderstorms and Rain
4:13 PM 66.2 °F - 62.6 °F 88% 30.03 in 10.0 mi NW 15.0 mph 26.5 mph N/A Rain , Thunderstorm Light Rain
4:43 PM 64.4 °F - 62.6 °F 94% 30.02 in 10.0 mi NW 5.8 mph - N/A   Mostly Cloudy
4:44 PM 64.4 °F - 62.6 °F 94% 30.02 in 10.0 mi NW 5.8 mph - N/A   Light Drizzle
4:58 PM 64.8 °F - 63.0 °F 94% 30.02 in 10.0 mi WNW 5.8 mph - 0.08 in   Light Drizzle
5:42 PM 64.4 °F - 62.6 °F 94% 30.00 in 10.0 mi SW 4.6 mph - N/A   Scattered Clouds
5:58 PM 64.4 °F - 63.7 °F 98% 30.00 in 10.0 mi SW 4.6 mph - 0.02 in   Clear
6:58 PM 65.3 °F - 64.6 °F 98% 29.99 in 10.0 mi WSW 4.6 mph - N/A   Mostly Cloudy
7:58 PM 66.6 °F - 65.8 °F 98% 29.98 in 10.0 mi West 3.5 mph - N/A   Clear
8:58 PM 64.8 °F - 64.0 °F 98% 29.98 in 10.0 mi NW 3.5 mph - N/A   Mostly Cloudy
9:58 PM 64.2 °F - 64.2 °F 100% 30.00 in 10.0 mi Calm Calm - N/A   Clear
10:58 PM 64.0 °F - 64.0 °F 100% 30.01 in 10.0 mi NNE 2.3 mph - N/A   Partly Cloudy
11:58 PM 61.7 °F - 61.7 °F 100% 30.01 in 10.0 mi SSW 3.5 mph - N/A   Clear